Regional Weather Roundup
Issued by NWS

Home | Current Version | Previous Version | Text Only | Print | Product List | Glossary On
Versions: 1 2 3 4 5 6 7 8 9 10 11 12 13 14 15 16 17 18 19 20 21 22 23 24 25 26 27 28 29 30 31 32 33 34 35 36 37 38 39 40 41 42 43 44 45 46 47 48 49 50
000
ASUS43 KMPX 301301
RWRMN
WEATHER ROUNDUP FOR MINNESOTA
NATIONAL WEATHER SERVICE TWIN CITIES/CHANHASSEN MN
700 AM CST FRI JAN 30 2015


NOTE: "FAIR" INDICATES FEW OR NO CLOUDS BELOW 12,000 FEET WITH NO
SIGNIFICANT WEATHER AND/OR OBSTRUCTIONS TO VISIBILITY. N/A MEANS
CURRENT SKY AND/OR WEATHER CONDITIONS ARE NOT AVAILABLE.

MNZ060>063-068>070-301400-
   Twin Cities Metro

CITY           SKY/WX    TMP DP  RH WIND       PRES   REMARKS
TWIN CITIES    MOCLDY    12   4  70 SE6       30.52S WCI   3
ST PAUL        PTCLDY    11   3  70 E5        30.54F WCI   3
CRYSTAL        PTCLDY    13   4  67 E3        30.51S
BLAINE         MOCLDY    10   7  85 E3        30.51S
LAKEVILLE      PTCLDY    10   7  85 E3        30.50F
EDEN PRAIRIE   PTCLDY    12   7  80 CALM      30.50S
SOUTH ST PAUL  PTCLDY    12   4  71 CALM      30.53S
LAKE ELMO      FAIR      10   5  79 SE3       30.52F
$$
MNZ001>005-007-008-013>017-022>024-027-028-301400-
   Northwest Minnesota

CITY           SKY/WX    TMP DP  RH WIND       PRES   REMARKS
BEMIDJI        MOCLDY     2  -1  85 CALM      30.41F
HALLOCK        CLOUDY     7   1  78 SE16      30.36F WCI -11
ROSEAU         MOCLDY     3  -2  78 S12       30.38F WCI -13
WARROAD        CLEAR      1  -6  71 S7        30.39F WCI -11
THIEF RVR FALL CLOUDY     7   3  85 S8        30.39F WCI  -6
CROOKSTON      MOCLDY     9   3  78 S12       30.42F WCI  -6
FOSSTON        MOCLDY     3   0  85 S10       30.41F WCI -12
DETROIT LAKES  MOCLDY     9   5  85 S6        30.43S WCI  -1
MOORHEAD       MOCLDY    10   9  92 S9        30.45F WCI  -2
PARK RAPIDS    PTCLDY     6   2  83 S3        30.42S
MAHNOMEN       CLOUDY     6   2  81 S5        30.42F WCI  -3
$$
MNZ006-009>011-018-025>026-301400-
   North Central Minnesota

CITY           SKY/WX    TMP DP  RH WIND       PRES   REMARKS
BAUDETTE       CLOUDY    -2  -7  79 S6        30.39F WCI -14
FLAG ISLAND    MOCLDY     1  -6  71 S14       30.38F WCI -17
INTL FALLS     CLOUDY    -6 -11  79 CALM      30.44S
WASKISH        CLOUDY     0  -2  92 CALM      30.42F
BIG FORK       PTCLDY    -2  -8  78 CALM      30.43F
LONGVILLE      CLOUDY     3   0  85 CALM      30.44F
GRAND RAPIDS   CLOUDY     1   0  92 CALM      30.42F
CRANE LAKE     MOCLDY    -9 -13  84 CALM      30.47S
ORR            CLOUDY    -9 -15  77 CALM      30.41S
COOK           PTCLDY    -9 -13  84 CALM      30.44S
WALKER         CLOUDY     3  -1  83 CALM      30.43F
$$
MNZ012-019>021-037-301400-
   Northeast Minnesota

CITY           SKY/WX    TMP DP  RH WIND       PRES   REMARKS
DULUTH         CLOUDY     0  -5  79 NW5       30.43S WCI -10
ELY            MOCLDY    -2  -6  84 CALM      30.41S
HIBBING        MOCLDY    -5 -11  75 CALM      30.44R
EVELETH        PTCLDY    -2  -8  78 CALM      30.44S
DULUTH HARBOR  MOCLDY     3  -2  78 CALM      30.54R
TWO HARBORS    PTCLDY     0  -6  78 CALM      30.44R
SILVER BAY     MOCLDY     0  -6  78 CALM      30.43S
GRAND MARAIS     N/A     -4  -8  83 NW3       30.49F
G MARAIS ARPRT PTCLDY    -2  -9  71 NW6       30.35S WCI -14
$$
MNZ029>031-032-039>041-046>048-054>057-064-301400-
   West Central Minnesota

CITY           SKY/WX    TMP DP  RH WIND       PRES   REMARKS
FERGUS FALLS   MOCLDY     9   3  78 S7        30.48F WCI  -3
WHEATON        CLOUDY    10   7  85 SE12      30.47F WCI  -4
MORRIS         CLOUDY    10   7  85 S6        30.46F WCI   1
ALEXANDRIA     MOCLDY     9   4  80 S7        30.45S WCI  -2
ELBOW LAKE     FAIR      10   5  80 SE6       30.45S WCI   0
WADENA         MOCLDY     7   1  78 CALM      30.43F
GLENWOOD       PTCLDY     9   5  85 SE3       30.46S
APPLETON       CLOUDY    12   9  85 SE3       30.48S
BENSON         MOCLDY    10   5  79 CALM      30.48S
ORTONVILLE     CLOUDY    14  10  85 E8        30.45S WCI   3
MADISON        CLOUDY    19  18  93 SE8       30.47S WCI   9
WILLMAR        FAIR      12   7  79 CALM      30.50R
$$
MNZ033>034-036-042>043-049>051-058-059-301400-
   Central Minnesota

CITY           SKY/WX    TMP DP  RH WIND       PRES   REMARKS
ST CLOUD       MOCLDY     9   4  80 CALM      30.49F
SAUK CENTRE    FAIR       9   5  84 SE5       30.47F WCI   0
PAYNESVILLE    PTCLDY     8   5  89 SE3       30.49R
AITKIN         PTCLDY     9   1  72 CALM      30.45F
PINE RIVER     CLOUDY     5   1  85 SE5       30.46F WCI  -4
BRAINERD       CLOUDY     5   1  83 S3        30.47S
STAPLES        CLOUDY     7   1  78 S5        30.45R WCI  -2
LONG PRAIRIE   MOCLDY     9   5  85 S5        30.46F WCI   0
LITTLE FALLS   MOCLDY     9   3  78 CALM      30.48F
LITCHFIELD     PTCLDY    12   9  85 CALM      30.49F
BUFFALO        PTCLDY    11   6  81 CALM      30.52S
MAPLE LAKE     PTCLDY    12   9  85 CALM      30.52R
$$
MNZ037-044-045-052-053-301400-
   East Central Minnesota

CITY           SKY/WX    TMP DP  RH WIND       PRES   REMARKS
PRINCETON      CLOUDY     9   3  78 CALM      30.50R
MORA           MOCLDY     7   1  78 CALM      30.51S
CAMBRIDGE      CLOUDY     9   1  72 CALM      30.50S
RUSH CITY      PTCLDY     6   1  79 CALM      30.52S
MOOSE LAKE     CLOUDY     5   1  85 CALM      30.47S
HINCKLEY       FAIR       7   1  78 CALM      30.50S
CLOQUET        CLOUDY     0  -4  85 NW5       30.46R WCI -10
MCGREGOR       CLOUDY     5   1  85 CALM      30.47F
$$
MNZ071>073-080-081-089-090-097-098-301400-
   Southwest Minnesota

CITY           SKY/WX    TMP DP  RH WIND       PRES   REMARKS
MONTEVIDEO     MOCLDY    10   9  92 S5        30.49F WCI   2
GRANITE FALLS  CLOUDY    12   8  84 SE5       30.50F WCI   5
CANBY          CLOUDY    19  16  88 S6        30.46F WCI  11
MARSHALL       CLOUDY    16  10  79 SW10      30.48S WCI   3
REDWOOD FALLS  CLEAR     11   7  84 S6        30.50S WCI   1
OLIVIA         CLEAR     10   9  92 S3        30.49R
PIPESTONE      CLOUDY    18  16  93 SW8       30.44R WCI   7
WINDOM         CLEAR     10   9  92 CALM      30.48F
WORTHINGTON    CLOUDY    16  10  79 S5        30.47S WCI   9
JACKSON        CLEAR     12  10  92 CALM      30.48F
TRACY          CLOUDY    18  15  87 SW9       30.47S WCI   7
SLAYTON        CLOUDY    17  15  91 CALM      30.45F
$$
MNZ065>067-074>077-082>085-091>093-301400-
   South Central Minnesota

CITY           SKY/WX    TMP DP  RH WIND       PRES   REMARKS
MANKATO        FAIR      10   5  79 CALM      30.51R
NEW ULM        CLEAR     10   7  85 CALM      30.51R
ST JAMES       FAIR      12   9  85 S3        30.52S
FAIRMONT       CLEAR     12   7  79 SW3       30.49S
GLENCOE        CLEAR     13  10  90 CALM      30.50S
FARIBAULT      PTCLDY     9   7  92 CALM      30.50F
OWATONNA       CLEAR      9   7  92 CALM      30.49S
WASECA         CLEAR     12  10  92 CALM      30.51S
ALBERT LEA     CLEAR     10   9  92 CALM      30.49S
$$
MNZ078>079-086>088-094>096-301400-
   Southeast Minnesota

CITY           SKY/WX    TMP DP  RH WIND       PRES   REMARKS
ROCHESTER      PTCLDY     7   2  80 CALM      30.49S
RED WING       PTCLDY     7   3  85 CALM      30.53S
STANTON        PTCLDY    12   5  73 SE3       30.50F
DODGE CENTER   PTCLDY     9   7  92 CALM      30.48S
WINONA         PTCLDY    12   7  79 CALM      30.55S
AUSTIN         CLEAR     10   7  85 CALM      30.49S
PRESTON        PTCLDY     8   4  85 CALM      30.50S
$$
ABBREVIATIONS USED IN REMARKS
   TC - TEMPERATURES IN CELSIUS
  WCI - WIND CHILL INDEX
   HX - HEAT INDEX
  VSB - VISIBILITY
$$



USA.gov is the U.S. government's official web portal to all federal, state and local government web resources and services.